Location: *
(50.6089°N, 2.2719°E)
Time: 02:45:01
(UTC+00:00)

Lacrosse 5 - Pass Details

Date: 18 October 2019
Orbit: 715 x 724 km, 57.0° (Epoch: 20 November)

Event Time Altitude Azimuth Distance (km) Brightness Sun altitude
Rises 19:12:27 0° 301° (WNW) 3,125 6.4 -22.7°
Reaches altitude 10° 19:14:52 10° 298° (WNW) 2,202 5.4 -23.1°
Maximum altitude 19:19:50 58° 220° (SW) 832 2.2 -23.8°
Enters shadow 19:20:55 47° 173° (S) 945 2.2 -24.0°
